Weather History for KBLM - February, 2012

Change the Weather History Date:

Friday, February 3, 2012

  Actual Average Record
Temperature  
Mean Temperature 36 °F -  
Max Temperature 44 °F 37 °F 62 °F (2006)
Min Temperature 28 °F 25 °F 12 °F (2015)
Degree Days  
Heating Degree Days 29    
Moisture  
Dew Point 19 °F    
Average Humidity 50    
Maximum Humidity 69    
Minimum Humidity 34    
Precipitation  
Precipitation 0.00 in - - ()
Sea Level Pressure  
Sea Level Pressure 30.37 in    
Wind  
Wind Speed 11 mph (NW)    
Max Wind Speed 18 mph    
Max Gust Speed 23 mph    
Visibility 10 miles    
Events      
Averages and records for this station are not official NWS values.
T = Trace of Precipitation, MM = Missing Value Source: NWS Daily Summary

Daily Weather History Graph

Daily Weather History Graph

Search for Another Location

Airport or City:

Trip Planner

Search our weather history database for the weather conditions in past years. The results will help you decide how hot, cold, wet, or windy it might be!

Date:

Astronomy

Feb. 03, 2012 Rise Set
Actual Time 7:03 AM EST 5:17 PM EST
Civil Twilight 6:35 AM EST 5:45 PM EST
Nautical Twilight 6:02 AM EST 6:18 PM EST
Astronomical Twilight 5:31 AM EST 6:49 PM EST
Moon 1:15 PM EST (2/3) 3:37 AM EST (2/3)
Length of Visible Light 11h 10m
Length of Day
10h 13m
Waxing Gibbous, 81% of the Moon is Illuminated
Feb 3
Waxing Gibbous
Feb 7
Full
Feb 14
Last Quarter
Feb 21
New
Feb 29
First Quarter

Hourly Weather History & Observations

Time (EST) Temp. Windchill Dew Point Humidity Pressure Visibility Wind Dir Wind Speed Gust Speed Precip Events Conditions
12:15 AM 35.6 °F 26.2 °F 21.2 °F 56% 30.24 in 10.0 mi NNW 15.0 mph 19.6 mph N/A   Mostly Cloudy
12:35 AM 35.6 °F 25.9 °F 19.4 °F 52% 30.25 in 10.0 mi NNW 16.1 mph - N/A   Partly Cloudy
12:55 AM 33.8 °F 24.3 °F 19.4 °F 56% 30.26 in 10.0 mi NNW 13.8 mph - N/A   Clear
1:15 AM 33.8 °F 26.4 °F 19.4 °F 56% 30.27 in 10.0 mi NNW 9.2 mph - N/A   Clear
1:35 AM 33.8 °F 26.4 °F 19.4 °F 56% 30.27 in 10.0 mi NNW 9.2 mph - N/A   Clear
1:55 AM 33.8 °F 26.4 °F 19.4 °F 56% 30.28 in 10.0 mi NW 9.2 mph - N/A   Clear
2:15 AM 33.8 °F 24.8 °F 19.4 °F 56% 30.29 in 10.0 mi NNW 12.7 mph 19.6 mph N/A   Clear
2:35 AM 32.0 °F 23.0 °F 19.4 °F 60% 30.29 in 10.0 mi NNW 11.5 mph 19.6 mph N/A   Clear
2:55 AM 32.0 °F 23.6 °F 19.4 °F 60% 30.30 in 10.0 mi NNW 10.4 mph 17.3 mph N/A   Clear
3:15 AM 32.0 °F 23.0 °F 19.4 °F 60% 30.31 in 10.0 mi NW 11.5 mph - N/A   Clear
3:35 AM 30.2 °F 20.8 °F 19.4 °F 64% 30.31 in 10.0 mi NW 11.5 mph - N/A   Clear
3:55 AM 30.2 °F 22.6 °F 19.4 °F 64% 30.33 in 10.0 mi NW 8.1 mph - N/A   Clear
4:15 AM 30.2 °F 20.8 °F 17.6 °F 60% 30.34 in 10.0 mi NW 11.5 mph - N/A   Clear
4:35 AM 30.2 °F 22.6 °F 19.4 °F 64% 30.34 in 10.0 mi NW 8.1 mph - N/A   Clear
4:55 AM 30.2 °F 22.6 °F 19.4 °F 64% 30.35 in 10.0 mi NW 8.1 mph - N/A   Clear
5:15 AM 30.2 °F 22.6 °F 17.6 °F 60% 30.36 in 10.0 mi NW 8.1 mph - N/A   Clear
5:35 AM 30.2 °F 23.4 °F 19.4 °F 64% 30.37 in 10.0 mi NNW 6.9 mph - N/A   Clear
5:55 AM 30.2 °F 24.3 °F 19.4 °F 64% 30.38 in 10.0 mi NW 5.8 mph - N/A   Clear
6:15 AM 28.4 °F 23.3 °F 19.4 °F 69% 30.38 in 10.0 mi NNW 4.6 mph - N/A   Clear
6:35 AM 28.4 °F 21.2 °F 19.4 °F 69% 30.38 in 10.0 mi NNW 6.9 mph - N/A   Clear
6:55 AM 28.4 °F 20.4 °F 17.6 °F 64% 30.40 in 10.0 mi NNW 8.1 mph - N/A   Clear
7:15 AM 28.4 °F 19.7 °F 19.4 °F 69% 30.41 in 10.0 mi NW 9.2 mph - N/A   Clear
7:35 AM 28.4 °F 19.7 °F 19.4 °F 69% 30.42 in 10.0 mi NNW 9.2 mph - N/A   Clear
7:55 AM 30.2 °F 19.8 °F 19.4 °F 64% 30.43 in 10.0 mi NW 13.8 mph - N/A   Clear
8:15 AM 32.0 °F 23.0 °F 19.4 °F 60% 30.44 in 10.0 mi NNW 11.5 mph - N/A   Clear
8:35 AM 33.8 °F 22.8 °F 17.6 °F 52% 30.44 in 10.0 mi NNW 18.4 mph 23.0 mph N/A   Clear
8:55 AM 33.8 °F 23.9 °F 17.6 °F 52% 30.44 in 10.0 mi NNW 15.0 mph 21.9 mph N/A   Clear
9:15 AM 35.6 °F 25.5 °F 19.4 °F 52% 30.45 in 10.0 mi NNW 17.3 mph 23.0 mph N/A   Clear
9:35 AM 35.6 °F 25.2 °F 19.4 °F 52% 30.44 in 10.0 mi NNW 18.4 mph 23.0 mph N/A   Clear
9:55 AM 35.6 °F 25.5 °F 19.4 °F 52% 30.45 in 10.0 mi NW 17.3 mph - N/A   Clear
10:15 AM 37.4 °F 27.8 °F 19.4 °F 48% 30.45 in 10.0 mi NNW 17.3 mph - N/A   Clear
10:35 AM 37.4 °F 27.5 °F 17.6 °F 45% 30.44 in 10.0 mi NW 18.4 mph 21.9 mph N/A   Clear
10:55 AM 39.2 °F 30.2 °F 17.6 °F 42% 30.44 in 10.0 mi NW 17.3 mph - N/A   Clear
11:15 AM 39.2 °F 30.8 °F 17.6 °F 42% 30.44 in 10.0 mi NW 15.0 mph 19.6 mph N/A   Clear
11:35 AM 39.2 °F 31.2 °F 17.6 °F 42% 30.43 in 10.0 mi NW 13.8 mph 18.4 mph N/A   Clear
11:55 AM 39.2 °F 31.2 °F 17.6 °F 42% 30.42 in 10.0 mi NW 13.8 mph 18.4 mph N/A   Clear
12:15 PM 41.0 °F 34.3 °F 19.4 °F 42% 30.41 in 10.0 mi NW 11.5 mph 18.4 mph N/A   Clear
12:35 PM 42.8 °F 35.4 °F 19.4 °F 39% 30.40 in 10.0 mi NNW 15.0 mph 19.6 mph N/A   Clear
12:55 PM 42.8 °F 36.6 °F 19.4 °F 39% 30.39 in 10.0 mi NW 11.5 mph 16.1 mph N/A   Clear
1:15 PM 42.8 °F 37.0 °F 19.4 °F 39% 30.39 in 10.0 mi NW 10.4 mph - N/A   Clear
1:35 PM 42.8 °F 36.6 °F 17.6 °F 36% 30.38 in 10.0 mi NW 11.5 mph 16.1 mph N/A   Clear
1:55 PM 42.8 °F 36.6 °F 19.4 °F 39% 30.38 in 10.0 mi NW 11.5 mph 18.4 mph N/A   Clear
2:15 PM 44.6 °F 38.4 °F 19.4 °F 37% 30.38 in 10.0 mi WNW 12.7 mph - N/A   Clear
2:35 PM 44.6 °F 40.7 °F 17.6 °F 34% 30.38 in 10.0 mi NW 6.9 mph - N/A   Clear
2:55 PM 44.6 °F 39.7 °F 19.4 °F 37% 30.37 in 10.0 mi NW 9.2 mph - N/A   Clear
3:15 PM 44.6 °F 39.7 °F 19.4 °F 37% 30.37 in 10.0 mi West 9.2 mph - N/A   Clear
3:35 PM 44.6 °F 39.2 °F 19.4 °F 37% 30.37 in 10.0 mi WNW 10.4 mph - N/A   Clear
3:55 PM 44.6 °F 39.7 °F 19.4 °F 37% 30.37 in 10.0 mi WNW 9.2 mph - N/A   Clear
4:15 PM 44.6 °F 39.2 °F 17.6 °F 34% 30.37 in 10.0 mi WNW 10.4 mph - N/A   Clear
4:35 PM 42.8 °F 37.5 °F 17.6 °F 36% 30.38 in 10.0 mi WNW 9.2 mph - N/A   Clear
4:55 PM 42.8 °F 37.5 °F 17.6 °F 36% 30.39 in 10.0 mi West 9.2 mph - N/A   Clear
5:15 PM 42.8 °F 38.0 °F 17.6 °F 36% 30.39 in 10.0 mi WNW 8.1 mph - N/A   Clear
5:35 PM 41.0 °F 38.0 °F 17.6 °F 39% 30.40 in 10.0 mi West 4.6 mph - N/A   Clear
5:55 PM 39.2 °F 34.2 °F 17.6 °F 42% 30.40 in 10.0 mi West 6.9 mph - N/A   Clear
6:15 PM 39.2 °F 37.0 °F 17.6 °F 42% 30.39 in 10.0 mi West 3.5 mph - N/A   Clear
6:35 PM 37.4 °F 33.8 °F 17.6 °F 45% 30.40 in 10.0 mi SSW 4.6 mph - N/A   Clear
6:55 PM 37.4 °F 32.1 °F 17.6 °F 45% 30.40 in 10.0 mi West 6.9 mph - N/A   Clear
7:15 PM 37.4 °F 33.8 °F 17.6 °F 45% 30.40 in 10.0 mi WSW 4.6 mph - N/A   Clear
7:35 PM 37.4 °F 33.8 °F 17.6 °F 45% 30.40 in 10.0 mi WSW 4.6 mph - N/A   Clear
7:55 PM 37.4 °F 34.9 °F 17.6 °F 45% 30.40 in 10.0 mi West 3.5 mph - N/A   Clear
8:15 PM 37.4 °F 34.9 °F 19.4 °F 48% 30.39 in 10.0 mi WSW 3.5 mph - N/A   Clear
8:35 PM 35.6 °F 31.7 °F 19.4 °F 52% 30.39 in 10.0 mi West 4.6 mph - N/A   Clear
8:55 PM 35.6 °F 31.7 °F 19.4 °F 52% 30.39 in 10.0 mi West 4.6 mph - N/A   Clear
9:15 PM 35.6 °F 31.7 °F 19.4 °F 52% 30.38 in 10.0 mi West 4.6 mph - N/A   Clear
9:35 PM 33.8 °F - 19.4 °F 56% 30.38 in 10.0 mi Calm Calm - N/A   Clear
9:55 PM 33.8 °F 29.6 °F 19.4 °F 56% 30.38 in 10.0 mi WNW 4.6 mph - N/A   Clear
10:15 PM 33.8 °F 29.6 °F 19.4 °F 56% 30.38 in 10.0 mi NW 4.6 mph - N/A   Clear
10:35 PM 33.8 °F 29.6 °F 19.4 °F 56% 30.38 in 10.0 mi WNW 4.6 mph - N/A   Clear
10:55 PM 33.8 °F 30.8 °F 19.4 °F 56% 30.38 in 10.0 mi WNW 3.5 mph - N/A   Clear
11:15 PM 32.0 °F - 19.4 °F 60% 30.38 in 10.0 mi Calm Calm - N/A   Clear
11:35 PM 32.0 °F - 19.4 °F 60% 30.37 in 10.0 mi Calm Calm - N/A   Clear
11:55 PM 30.2 °F 25.4 °F 19.4 °F 64% 30.37 in 10.0 mi West 4.6 mph - N/A   Clear